Home   Weather   Newcastle upon Tyne   Past weeks

Flag for United Kingdom Past Weather in Newcastle upon Tyne, England, United Kingdom — Yesterday and Last 2 Weeks

Now
46 °F

Passing clouds.


Feels Like: 44 °F
Forecast: 38 / 54 °F
Wind: 5 mph from Southeast

Location: Newcastle

Current Time: Apr 28, 2017 at 7:16:03 pm

Latest Report: Apr 28, 2017 at 6:50 pm


Visibility: N/A

Pressure: 29.95 "Hg

Humidity: 76%

Dew Point: 39 °F

Location of Newcastle upon TyneLocation

Past Weather in Newcastle upon Tyne — Graph

°F

Newcastle upon Tyne Temperature Yesterday

Maximum temperature yesterday: 54 °F (at 3:20 pm)
Minimum temperature yesterday: 36 °F (at 11:50 pm)
Average temperature yesterday: 44 °F

High & Low Weather Summary for the Past Weeks

 TemperatureHumidityPressure
High61 °F (Apr 20, 1:50 pm)100% (Apr 14, 2:20 am)30.57 "Hg (Apr 14, 2:20 am)
Low30 °F (Apr 18, 3:20 am)37% (Apr 24, 2:50 pm)29.80 "Hg (Apr 14, 4:20 pm)
Average44 °F80%30.16 "Hg
* Reported Apr 13 5:50 pm — Apr 28 5:50 pm, Newcastle upon Tyne, Weather by CustomWeather, © 2017

Note: Actual official high and low records may vary slightly from our data, if they occured in-between our weather recording intervals... More about our weather records

Advertising

Newcastle upon Tyne Weather History for the Previous 24 Hours

Scroll right to see more
 ConditionsComfort  
Time TempWeatherWind HumidityBarometerVisibility
5:50 pm
Fri, Apr 28
46 °FPassing clouds.6 mph76%29.98 "HgN/A
5:20 pm48 °FPassing clouds.7 mph71%29.98 "HgN/A
4:50 pm48 °FPassing clouds.9 mph71%29.98 "HgN/A
4:20 pm46 °FScattered clouds.7 mph76%29.98 "HgN/A
3:50 pm46 °FPassing clouds.8 mph76%29.98 "HgN/A
3:20 pm48 °FPassing clouds.7 mph71%29.98 "HgN/A
2:50 pm48 °FScattered clouds.6 mph71%29.98 "HgN/A
2:20 pm48 °FScattered clouds.9 mph71%29.98 "HgN/A
1:50 pm50 °FPassing clouds.6 mph67%29.98 "HgN/A
1:20 pm50 °FPassing clouds.3 mph54%29.98 "HgN/A
12:20 pm48 °FScattered clouds.5 mph62%30.01 "HgN/A
11:50 am46 °FPartly sunny.6 mph62%30.01 "HgN/A
11:20 am48 °FPartly sunny.6 mph62%30.01 "HgN/A
10:20 am45 °FScattered clouds.6 mph71%30.01 "HgN/A
9:50 am45 °FScattered clouds.8 mph76%30.01 "HgN/A
9:20 am45 °FPassing clouds.8 mph76%30.04 "HgN/A
8:20 am45 °FPassing clouds.8 mph76%30.01 "HgN/A
7:50 am43 °FPassing clouds.7 mph87%30.01 "HgN/A
7:20 am41 °FPassing clouds.5 mph93%30.04 "HgN/A
6:50 am36 °FSunny.3 mph100%30.04 "Hg10 mi
5:50 am34 °FPassing clouds.3 mph100%30.04 "HgN/A
5:20 am36 °FPassing clouds.6 mph100%30.01 "HgN/A
4:50 am34 °FPassing clouds.5 mph100%30.01 "HgN/A
4:20 am34 °FPassing clouds.5 mph100%30.01 "HgN/A
3:50 am34 °FPassing clouds.3 mph100%30.04 "HgN/A
3:20 am34 °FPassing clouds.3 mph100%30.01 "HgN/A
2:50 am34 °FClear.7 mph100%30.04 "Hg10 mi
2:20 am36 °FClear.6 mph93%30.04 "Hg10 mi
1:50 am34 °FClear.6 mph100%30.04 "Hg10 mi
1:20 am36 °FClear.6 mph93%30.04 "Hg10 mi
12:50 am36 °FPassing clouds.5 mph93%30.04 "HgN/A
12:20 am39 °FPassing clouds.7 mph93%30.04 "HgN/A
11:50 pm
Thu, Apr 27
36 °FPassing clouds.3 mph93%30.04 "HgN/A
11:20 pm37 °FPassing clouds.3 mph93%30.04 "HgN/A
10:50 pm39 °FPassing clouds.6 mph87%30.04 "HgN/A
10:20 pm39 °FPassing clouds.6 mph93%30.04 "HgN/A
9:50 pm41 °FPassing clouds.7 mph81%30.04 "HgN/A
9:20 pm43 °FPassing clouds.5 mph81%30.04 "HgN/A
8:50 pm43 °FPassing clouds.8 mph87%30.01 "HgN/A
8:20 pm43 °FScattered clouds.9 mph87%30.01 "HgN/A
7:50 pm43 °FPassing clouds.7 mph87%30.01 "HgN/A
7:20 pm45 °FPassing clouds.9 mph81%30.01 "HgN/A
Weather by CustomWeather, © 2017

See weather overviewHow to use our weather pages